This is the latest recevied weather packets stored in our database for station/object KQ7A. If no packets are shown the sender has not sent any weather packets the latest 10 day(s).
| Time | Temp. | Humidity | Pressure | Rain* | Wind** | Luminosity | Snow |
|---|---|---|---|---|---|---|---|
| 1777567641 | 14.44° C | 36% | 1020.3 hPa | 0 mm | - | 737 W/m² | - |
| 1777567339 | 14.44° C | 37% | 1020.5 hPa | 0 mm | - | 714 W/m² | - |
| 1777567037 | 14.44° C | 40% | 1020.5 hPa | 0 mm | - | 707 W/m² | - |
| 1777566734 | 13.89° C | 51% | 1020.4 hPa | 0 mm | - | 674 W/m² | - |
| 1777566432 | 13.89° C | 49% | 1020.6 hPa | 0 mm | - | 643 W/m² | - |
| 1777566129 | 12.22° C | 52% | 1020.6 hPa | 0 mm | - | 609 W/m² | - |
| 1777565824 | 12.22° C | 50% | 1020.7 hPa | 0 mm | - | 597 W/m² | - |
| 1777565521 | 12.22° C | 51% | 1020.6 hPa | 0 mm | - | 582 W/m² | - |
| 1777565217 | 11.67° C | 51% | 1020.7 hPa | 0 mm | - | 553 W/m² | - |
| 1777564914 | 11.67° C | 52% | 1020.8 hPa | 0 mm | - | 493 W/m² | - |
| 1777564609 | 11.11° C | 53% | 1020.6 hPa | 0 mm | - | 439 W/m² | - |
| 1777564304 | 11.67° C | 54% | 1020.7 hPa | 0 mm | - | 396 W/m² | - |
| 1777564001 | 11.11° C | 56% | 1020.6 hPa | 0 mm | - | 381 W/m² | - |
| 1777563697 | 10.56° C | 58% | 1020.5 hPa | 0 mm | - | 363 W/m² | - |
| 1777563393 | 10° C | 58% | 1020.5 hPa | 0 mm | - | 338 W/m² | - |
| 1777563088 | 10° C | 60% | 1020.4 hPa | 0 mm | - | 317 W/m² | - |
| 1777562784 | 10° C | 62% | 1020.7 hPa | 0 mm | - | 298 W/m² | - |
| 1777562482 | 10° C | 61% | 1020.6 hPa | 0 mm | - | 292 W/m² | - |
| 1777562179 | 8.89° C | 62% | 1020.7 hPa | 0 mm | - | 262 W/m² | - |
| 1777561877 | 8.33° C | 62% | 1020.6 hPa | 0 mm | - | 256 W/m² | - |
| 1777561573 | 8.33° C | 64% | 1020.7 hPa | 0 mm | - | 241 W/m² | - |
| 1777561269 | 7.78° C | 63% | 1020.8 hPa | 0 mm | - | 219 W/m² | - |
| 1777560963 | 7.78° C | 65% | 1020.7 hPa | 0 mm | - | 202 W/m² | - |
| 1777560659 | 8.89° C | 62% | 1020.8 hPa | 0 mm | - | 181 W/m² | - |
| 1777560357 | 8.33° C | 62% | 1020.8 hPa | 0 mm | - | 131 W/m² | - |
* Rain latest hour (hover to see other rain measurements)
** Current wind speed in m/s (hover to see current wind gust speed)